2024-172D

Last updated on Fri Oct 04 2024 00:02:04 GMT+0000 (Coordinated Universal Time)

1 61223U 24172D 24277.51794810 .00014625 00000+0 20556-2 0 9994 2 61223 98.0182 3.9237 0001442 257.0407 103.0642 14.77475332 1857
UTC large
Height (km)
Speed (km/s)
/
Latitude / Longitude
Inclination (degrees)
Orbital Period (minutes)
Azimuth
Elevation
Range (km)
Doppler Factor

Next 0 passes for location: London (51.5072 / 0.1276)

Sorry there are no passes over London.